FW7314 Weather Reports


time (UTC)temp
F
wind
direction
speed
knots
gust
knots
rain 1hr
in
rain 24hr
in
rain mn
in
humidity
%
barometer
mb
20260505214531 64 0.0 0.0 0.00 0.00 0.00 68 1015.7
20260505214030 64 0.0 0.0 0.00 0.00 0.00 70 1015.8
20260505213531 63 0.0 0.0 0.00 0.00 0.00 70 1015.8
20260505213030 64 0.0 0.0 0.00 0.00 0.00 69 1015.8
20260505212531 63 0.0 0.0 0.00 0.00 0.00 69 1015.8
20260505212029 64 0.0 0.0 0.00 0.00 0.00 70 1015.9
20260505211531 64 0.0 0.0 0.00 0.00 0.00 69 1015.8
20260505211030 64 0.0 0.0 0.00 0.00 0.00 69 1016.0
20260505210532 63 0.0 0.0 0.00 0.00 0.00 71 1015.8
20260505210030 63 0.0 0.0 0.00 0.00 0.00 70 1015.9
20260505210017 62 0.0 0.0 0.00 0.00 0.00 70 1015.9
20260505205030 63 0.0 0.0 0.00 0.00 0.00 70 1016.1
20260505204532 63 0.0 0.0 0.00 0.00 0.00 69 1015.9
20260505204028 64 0.0 0.0 0.00 0.00 0.00 69 1016.2
20260505203530 64 0.0 0.0 0.00 0.00 0.00 69 1016.0
20260505203030 64 0.0 0.0 0.00 0.00 0.00 71 1016.0
20260505202530 63 0.0 0.0 0.00 0.00 0.00 71 1016.0
20260505202029 63 0.0 0.0 0.00 0.00 0.00 70 1016.0
20260505201530 63 0.0 0.0 0.00 0.00 0.00 70 1016.0
20260505201029 63 0.0 0.0 0.00 0.00 0.00 68 1016.0
20260505200531 63 0.0 0.0 0.00 0.00 0.00 69 1016.1
20260505200252 63 0.0 0.0 0.00 0.00 0.00 69 1016.0
20260505195533 63 0.0 0.0 0.00 0.00 0.00 70 1016.3
20260505195030 63 0.0 0.0 0.00 0.00 0.00 69 1016.3
20260505194751 63 0.0 0.0 0.00 0.00 0.00 67 1016.2
20260505194736 63 0.0 0.0 0.00 0.00 0.00 69 1016.3
20260505193531 64 0.0 0.0 0.00 0.00 0.00 69 1016.3
20260505193252 63 0.0 0.0 0.00 0.00 0.00 68 1016.2
20260505192530 63 0.0 0.0 0.00 0.00 0.00 70 1016.2
20260505192029 63 0.0 0.0 0.00 0.00 0.00 70 1016.2
20260505191531 63 0.0 0.0 0.00 0.00 0.00 69 1016.1
20260505191031 63 0.0 0.0 0.00 0.00 0.00 67 1016.4
20260505190530 64 0.0 0.0 0.00 0.00 0.00 70 1016.2
20260505190031 63 0.0 0.0 0.00 0.00 0.00 68 1016.1
20260505185529 63 0.0 0.0 0.00 0.00 0.00 69 1016.2
20260505185030 63 0.0 0.0 0.00 0.00 0.00 70 1016.1
20260505184530 62 0.0 0.0 0.00 0.00 0.00 71 1016.5
20260505184029 62 0.0 0.0 0.00 0.00 0.00 70 1016.3
20260505183529 63 0.0 0.0 0.00 0.00 0.00 69 1016.3
20260505183030 63 0.0 0.0 0.00 0.00 0.00 70 1016.3
20260505182753 63 0.0 0.0 0.00 0.00 0.00 70 1016.3
20260505182029 63 0.0 0.0 0.00 0.00 0.00 69 1016.1
20260505181529 63 0.0 0.0 0.00 0.00 0.00 70 1016.1
20260505181250 62 0.0 0.0 0.00 0.00 0.00 72 1016.3
20260505180530 62 0.0 0.0 0.00 0.00 0.00 71 1016.2
20260505180246 62 0.0 0.0 0.00 0.00 0.00 73 1016.1
20260505175957 60 0.0 0.0 0.00 0.00 0.00 75 1016.2
20260505175725 61 0.0 0.0 0.00 0.00 0.00 73 1016.1
20260505174745 59 0.0 0.0 0.00 0.00 0.00 77 1016.0
20260505174734 60 0.0 0.0 0.00 0.00 0.00 77 1016.0
20260505173530 58 0.0 0.0 0.00 0.00 0.00 78 1016.1
20260505173030 58 0.0 0.0 0.00 0.00 0.00 76 1016.2
20260505172530 58 0.0 0.0 0.00 0.00 0.00 77 1016.2
20260505172029 58 0.0 0.0 0.00 0.00 0.00 78 1016.2
20260505171531 58 0.0 0.0 0.00 0.00 0.00 78 1016.2
20260505171029 58 0.0 0.0 0.00 0.00 0.00 79 1016.0
20260505170542 57 0.0 0.0 0.00 0.00 0.00 78 1016.1
20260505170031 58 0.0 0.0 0.00 0.00 0.00 78 1016.0
20260505165754 58 0.0 0.0 0.00 0.00 0.00 79 1016.0
20260505165031 58 0.0 0.0 0.00 0.00 0.00 79 1015.8
20260505164520 58 0.0 0.0 0.00 0.00 0.00 78 1015.9
20260505164018 58 0.0 0.0 0.00 0.00 0.00 79 1015.8
20260505163747 57 0.0 0.0 0.00 0.00 0.00 80 1015.7
20260505163018 57 0.0 0.0 0.00 0.00 0.00 80 1015.7
20260505162519 57 0.0 0.0 0.00 0.00 0.00 79 1015.7
20260505162018 57 0.0 0.0 0.00 0.00 0.00 79 1015.8
20260505161520 57 0.0 0.0 0.00 0.00 0.00 80 1015.8
20260505161016 57 0.0 0.0 0.00 0.00 0.00 79 1015.6
20260505160532 57 0.0 0.0 0.00 0.00 0.00 81 1015.6
20260505160239 57 0.0 0.0 0.00 0.00 0.00 80 1015.8
20260505153018 56 0.0 0.0 0.00 0.00 0.00 83 1015.6
20260505152519 56 0.0 0.0 0.00 0.00 0.00 82 1015.6
20260505152017 56 0.0 0.0 0.00 0.00 0.00 83 1015.7
20260505151520 55 0.0 0.0 0.00 0.00 0.00 83 1015.5
20260505151018 55 0.0 0.0 0.00 0.00 0.00 83 1015.6
20260505150519 55 0.0 0.0 0.00 0.00 0.00 83 1015.8
20260505140507 54 0.0 0.0 0.00 0.00 0.00 84 1015.0
20260505125005 54 0.0 0.0 0.00 0.00 0.00 84 1014.6
20260505124507 54 0.0 0.0 0.00 0.00 0.00 85 1014.7
20260505124005 54 0.0 0.0 0.00 0.00 0.00 86 1014.5
20260505123727 54 0.0 0.0 0.00 0.00 0.00 84 1014.7
20260505123005 54 0.0 0.0 0.00 0.00 0.00 85 1014.7
20260505122946 54 0.0 0.0 0.00 0.00 0.00 85 1014.7
20260505122231 54 0.0 0.0 0.00 0.00 0.00 84 1014.6
20260505121507 54 0.0 0.0 0.00 0.00 0.00 86 1014.6
20260505121248 54 0.0 0.0 0.00 0.00 0.00 86 1014.6
20260505120507 54 0.0 0.0 0.00 0.00 0.00 84 1014.4
20260505120006 54 0.0 0.0 0.00 0.00 0.00 85 1014.4
20260505115728 54 0.0 0.0 0.00 0.00 0.00 84 1014.5
20260505115005 54 0.0 0.0 0.00 0.00 0.00 85 1014.5
20260505114508 54 0.0 0.0 0.00 0.00 0.00 84 1014.5
20260505114010 54 0.0 0.0 0.00 0.00 0.00 85 1014.4
20260505113731 54 0.0 0.0 0.00 0.00 0.00 85 1014.4
20260505113004 54 0.0 0.0 0.00 0.00 0.00 85 1014.5
20260505112519 54 0.0 0.0 0.00 0.00 0.00 84 1014.7
20260505112005 54 0.0 0.0 0.00 0.00 0.00 84 1014.5
20260505111508 54 0.0 0.0 0.00 0.00 0.00 85 1014.6
20260505111005 54 0.0 0.0 0.00 0.00 0.00 84 1014.5
20260505110941 54 0.0 0.0 0.00 0.00 0.00 85 1014.2
20260505110707 54 0.0 0.0 0.00 0.00 0.00 85 1014.5
20260505101507 54 0.0 0.0 0.00 0.00 0.00 84 1014.1
20260505101006 54 0.0 0.0 0.00 0.00 0.00 84 1014.0
20260505100725 54 0.0 0.0 0.00 0.00 0.00 84 1014.0
20260505100230 54 0.0 0.0 0.00 0.00 0.00 83 1014.1
20260505095507 54 0.0 0.0 0.00 0.00 0.00 84 1014.0
20260505095006 54 0.0 0.0 0.00 0.00 0.00 84 1014.0
20260505094507 54 0.0 0.0 0.00 0.00 0.00 84 1014.1
20260505094004 54 0.0 0.0 0.00 0.00 0.00 83 1013.9
20260505093506 54 0.0 0.0 0.00 0.00 0.00 82 1013.8
20260505093005 55 0.0 0.0 0.00 0.00 0.00 81 1013.7
20260505092506 55 0.0 0.0 0.00 0.00 0.00 82 1013.8
20260505092005 55 0.0 0.0 0.00 0.00 0.00 82 1013.8
20260505091507 55 0.0 0.0 0.00 0.00 0.00 81 1013.7
20260505091231 55 0.0 0.0 0.00 0.00 0.00 82 1013.6
20260505090505 55 0.0 0.0 0.00 0.00 0.00 81 1013.8
20260505090005 55 0.0 0.0 0.00 0.00 0.00 81 1013.5
20260505085948 55 0.0 0.0 0.00 0.00 0.00 83 1013.5
20260505085004 55 0.0 0.0 0.00 0.00 0.00 81 1013.4
20260505084506 55 0.0 0.0 0.00 0.00 0.00 81 1013.6
20260505084004 55 0.0 0.0 0.00 0.00 0.00 81 1013.4
20260505083507 56 0.0 0.0 0.00 0.00 0.00 80 1013.6
20260505083005 56 0.0 0.0 0.00 0.00 0.00 80 1013.5
20260505082506 56 0.0 0.0 0.00 0.00 0.00 80 1013.6
20260505082228 56 0.0 0.0 0.00 0.00 0.00 79 1013.5
20260505081506 56 0.0 0.0 0.00 0.00 0.00 80 1013.3
20260505081004 56 0.0 0.0 0.00 0.00 0.00 80 1013.4
20260505080507 56 0.0 0.0 0.00 0.00 0.00 80 1013.4
20260505080004 56 0.0 0.0 0.00 0.00 0.00 79 1013.2
20260505075721 56 0.0 0.0 0.00 0.00 0.00 79 1013.2
20260505075709 56 0.0 0.0 0.00 0.00 0.00 79 1013.2
20260505074508 56 0.0 0.0 0.00 0.00 0.00 78 1013.1
20260505074005 57 0.0 0.0 0.00 0.00 0.00 80 1013.1
20260505073506 57 0.0 0.0 0.00 0.00 0.00 78 1012.9
20260505073005 57 0.0 0.0 0.00 0.00 0.00 79 1013.0
20260505072729 57 0.0 0.0 0.00 0.00 0.00 79 1012.8
20260505072005 57 0.0 0.0 0.00 0.00 0.00 79 1012.8
20260505071727 58 0.0 0.0 0.00 0.00 0.00 79 1012.8
20260505071004 58 0.0 0.0 0.00 0.00 0.00 78 1012.9
20260505070519 58 0.0 0.0 0.00 0.00 0.00 78 1012.8
20260505070221 58 0.0 0.0 0.00 0.00 0.00 78 1012.7
20260505070211 58 0.0 0.0 0.00 0.00 0.00 79 1012.7
20260505065229 58 0.0 0.0 0.00 0.00 0.00 78 1012.6
20260505064506 58 0.0 0.0 0.00 0.00 0.00 77 1012.5
20260505064005 58 0.0 0.0 0.00 0.00 0.00 78 1012.5
20260505063506 58 0.0 0.0 0.00 0.00 0.00 78 1012.4
20260505063005 58 0.0 0.0 0.00 0.00 0.00 78 1012.3
20260505062506 58 0.0 0.0 0.00 0.00 0.00 76 1012.3
20260505062449 59 0.0 0.0 0.00 0.00 0.00 76 1012.1
20260505061507 59 0.0 0.0 0.00 0.00 0.00 75 1012.2
20260505061004 59 0.0 0.0 0.00 0.00 0.00 75 1012.0
20260505060507 60 0.0 0.0 0.00 0.00 0.00 75 1011.9
20260505060005 60 0.0 0.0 0.00 0.00 0.00 76 1012.0
20260505055506 60 0.0 0.0 0.00 0.00 0.00 75 1012.1
20260505055228 60 0.0 0.0 0.00 0.00 0.00 77 1011.9
20260505054506 60 0.0 0.0 0.00 0.00 0.00 75 1012.1
20260505054005 60 0.0 0.0 0.00 0.00 0.00 74 1011.8
20260505053507 61 0.0 0.0 0.00 0.00 0.00 74 1011.9
20260505053004 61 0.0 0.0 0.00 0.00 0.00 74 1011.8
20260505052506 61 0.0 0.0 0.00 0.00 0.00 74 1011.7
20260505052455 61 0.0 0.0 0.00 0.00 0.00 74 1011.8
20260505051520 62 0.0 0.0 0.00 0.00 0.00 76 1011.8
20260505051223 62 0.0 0.0 0.00 0.00 0.00 73 1011.6
20260505050508 62 0.0 0.0 0.00 0.00 0.00 73 1011.6
20260505041728 65 0.0 0.0 0.00 0.00 0.00 69 1011.0
20260505041005 65 0.0 0.0 0.00 0.00 0.00 70 1010.9
20260505040506 65 0.0 0.0 0.00 0.00 0.00 68 1011.1
20260505040225 65 0.0 0.0 0.00 0.00 0.00 68 1010.6
20260505035507 66 0.0 0.0 0.00 0.00 0.00 68 1010.8
20260505035004 66 0.0 0.0 0.00 0.00 0.00 69 1010.7
20260505034505 66 0.0 0.0 0.00 0.00 0.00 69 1010.5
20260505034006 66 0.0 0.0 0.00 0.00 0.00 68 1010.4
20260505033505 66 0.0 0.0 0.00 0.00 0.00 68 1010.3
20260505033004 67 0.0 0.0 0.00 0.00 0.00 69 1010.1
20260505032506 67 0.0 0.0 0.00 0.00 0.00 69 1010.1
20260505032005 67 0.0 0.0 0.00 0.00 0.00 68 1010.1
20260505031737 68 0.0 0.0 0.00 0.00 0.00 67 1010.1
20260505031224 68 0.0 0.0 0.00 0.00 0.00 66 1010.3
20260505030506 68 0.0 0.0 0.00 0.00 0.00 66 1010.0
20260505030225 69 0.0 0.0 0.00 0.00 0.00 67 1009.8
20260505025730 69 0.0 0.0 0.00 0.00 0.00 66 1009.7
20260505025004 69 0.0 0.0 0.00 0.00 0.00 66 1009.9
20260505024506 70 0.0 0.0 0.00 0.00 0.00 66 1009.7
20260505024005 70 0.0 0.0 0.00 0.00 0.00 66 1009.6
20260505023506 70 0.0 0.0 0.00 0.00 0.00 65 1009.7
20260505023004 71 0.0 0.0 0.00 0.00 0.00 66 1009.8
20260505022505 71 0.0 0.0 0.00 0.00 0.00 65 1009.8
20260505022006 71 0.0 0.0 0.00 0.00 0.00 66 1009.7
20260505021507 71 0.0 0.0 0.00 0.00 0.00 65 1009.6
20260505021230 71 0.0 0.0 0.00 0.00 0.00 64 1009.6
20260505020506 71 0.0 0.0 0.00 0.00 0.00 63 1009.7
20260505020005 72 0.0 0.0 0.00 0.00 0.00 62 1009.6
20260505015506 72 0.0 0.0 0.00 0.00 0.00 62 1009.7
20260505015005 72 0.0 0.0 0.00 0.00 0.00 62 1009.8
20260505014506 73 0.0 0.0 0.00 0.00 0.00 62 1009.7
20260505014227 73 0.0 0.0 0.00 0.00 0.00 62 1009.7
20260505013506 73 0.0 0.0 0.00 0.00 0.00 62 1009.8
20260505013005 73 0.0 0.0 0.00 0.00 0.00 62 1009.8
20260505012506 73 0.0 0.0 0.00 0.00 0.00 61 1009.8
20260505012005 73 0.0 0.0 0.00 0.00 0.00 60 1009.7
20260505011506 74 0.0 0.0 0.00 0.00 0.00 60 1009.7
20260505011005 74 0.0 0.0 0.00 0.00 0.00 59 1009.9
20260505010506 75 0.0 0.0 0.00 0.00 0.00 58 1010.0
20260505010005 75 0.0 0.0 0.00 0.00 0.00 58 1010.0
20260505005507 75 0.0 0.0 0.00 0.00 0.00 58 1009.9
20260505005005 75 0.0 0.0 0.00 0.00 0.00 57 1010.0
20260505004505 75 0.0 0.0 0.00 0.00 0.00 58 1010.0
20260505004224 76 0.0 0.0 0.00 0.00 0.00 58 1010.0
20260505003506 76 0.0 0.0 0.00 0.00 0.00 56 1009.9
20260505003005 75 0.0 0.0 0.00 0.00 0.00 58 1010.1
20260505002506 75 0.0 0.0 0.00 0.00 0.00 59 1010.0
20260505002005 75 0.0 0.0 0.00 0.00 0.00 56 1010.1
20260505001508 77 0.0 0.0 0.00 0.00 0.00 55 1010.1
20260505001005 79 0.0 0.0 0.00 0.00 0.00 53 1010.2
20260505000506 80 0.0 0.0 0.00 0.00 0.00 50 1010.3
20260505000004 79 0.0 0.0 0.00 0.00 0.00 52 1010.4
20260504235506 79 0.0 0.0 0.00 0.00 0.00 51 1010.4
20260504235006 79 0.0 0.0 0.00 0.00 0.00 52 1010.3
20260504234729 79 0.0 0.0 0.00 0.00 0.00 51 1010.3
20260504234005 80 0.0 0.0 0.00 0.00 0.00 51 1010.2
20260504233505 79 0.0 0.0 0.00 0.00 0.00 55 1010.3
20260504233004 77 0.0 0.0 0.00 0.00 0.00 56 1010.6
20260504232727 75 0.0 0.0 0.00 0.00 0.00 57 1010.4
20260504232005 74 0.0 0.0 0.00 0.00 0.00 58 1010.5
20260504231507 74 0.0 0.0 0.00 0.00 0.00 59 1010.5
20260504231004 73 0.0 0.0 0.00 0.00 0.00 58 1010.4
20260504230506 73 0.0 0.0 0.00 0.00 0.00 60 1010.7
20260504230005 73 0.0 0.0 0.00 0.00 0.00 60 1010.6
20260504225506 72 0.0 0.0 0.00 0.00 0.00 61 1010.6
20260504225223 72 0.0 0.0 0.00 0.00 0.00 60 1010.6
20260504224507 72 0.0 0.0 0.00 0.00 0.00 60 1010.8
20260504224004 72 0.0 0.0 0.00 0.00 0.00 61 1010.7
20260504223506 72 0.0 0.0 0.00 0.00 0.00 60 1010.8
20260504223004 71 0.0 0.0 0.00 0.00 0.00 61 1010.9
20260504222508 71 0.0 0.0 0.00 0.00 0.00 61 1011.0
20260504222005 71 0.0 0.0 0.00 0.00 0.00 61 1011.0
20260504221508 70 0.0 0.0 0.00 0.00 0.00 61 1011.2
20260504221005 70 0.0 0.0 0.00 0.00 0.00 61 1011.2
20260504220519 70 0.0 0.0 0.00 0.00 0.00 61 1011.2
20260504220006 70 0.0 0.0 0.00 0.00 0.00 63 1011.5
20260504215505 69 0.0 0.0 0.00 0.00 0.00 62 1011.3
20260504215006 69 0.0 0.0 0.00 0.00 0.00 62 1011.6